{"data":{"norad_id":62857,"epoch":"2026-09-21T08:38:08.481696Z","epoch_age_seconds":93898,"freshness":"FRESH","line1":"1 62857U 25022D   26264.35982039  .00017174  00000+0  51776-3 0  9996","line2":"2 62857  53.1593 297.5226 0001284  84.3887 275.7262 15.34430604 91902","mean_motion":15.34430604,"eccentricity":0.0001284,"inclination_deg":53.1593,"raan_deg":297.5226,"arg_perigee_deg":84.3887,"mean_anomaly_deg":275.7262,"bstar":0.00051776,"rev_number":9190,"period_min":93.845886301157,"perigee_km":461.73392797388,"apogee_km":463.49063238903,"semimajor_km":6840.7492801815,"source":"CELESTRAK","updated_at":"2026-09-22T09:00:49.676116Z"}}